Погода в Левобережном

Россия / Чеченская Республика     43°34′18″N   45°37′55″E
темп.,
°C
ветер,
м/с
пор.,
м/с
влажн.,
%
обл.,
%
осадки,
мм/ч
давл.,
гПа
погр.,
м
27 сентября, пн
пн2700:00+15юз35580 0.0 101677
03:00+15юз336013 0.0 101550
06:00+16юз115795 0.0 101513
09:00+16з385933 0.0 1015242
12:00+20сз675079 0.0 10151568
15:00+19сз785260 0.0 10151210
18:00+17з3549100 0.0 1016390
21:00+16юз4559100 0.1 1017355
28 сентября, вт
вт2800:00+15зюз3562100 0.0 1017261
03:00+15сз2363100 0.0 1016178
06:00+14сз1166100 0.0 101766
09:00+15с1165100 0.0 1018273
12:00+15ссв1262100 0.0 1018337
15:00+16св2255100 0.0 1018396
18:00+15св1158100 0.0 102046
21:00+15сз1156100 0.0 102134
29 сентября, ср
ср2900:00+14с2260100 0.0 102163
03:00+14всв2265100 0.0 102296
06:00+13св2267100 0.0 102285
09:00+14св2367100 0.0 1023369
12:00+15св4464100 0.0 1023859
15:00+15всв3460100 0.0 1022865
18:00+14всв4763100 0.0 1023548
21:00+11всв5982100 0.4 1024510
30 сентября, чт
чт3000:00+10всв5986100 1.7 1023671
03:00+10св5989100 4.3 1024621
06:00+9св4894100 6.1 1025525
09:00+9всв5789100 11.8 1027535
12:00+9ссв2490100 5.8 1028403
15:00+9всв1283100 7.8 1028347
18:00+9св1289100 1.4 1029204
21:00+9св1192100 2.6 1030158
1 октября, пт
пт100:00+9всв1193100 1.4 1029202
03:00+9в2889100 2.2 1029596
06:00+10всв2684100 0.1 1030349
09:00+10всв3772100 0.1 1031463
12:00+12в4765100 0.0 10301158
15:00+13в4665100 0.1 10301121
18:00+11всв5973100 0.1 1031572
21:00+11всв4966100 0.2 1031464